Skip Page Navigation
NASA JPL Caltech
NASA Logo - Jet Propulsion Laboratory + View the NASA Portal
+ Center for Near-Earth Object Studies
JPL Home Earth Solar System Stars & Galaxies Technology
JPL Solar System Dynamics
BODIES ORBITS EPHEMERIDES TOOLS PHYSICAL DATA DISCOVERY FAQ SITE MAP
JPL Small-Body Database Browser
Search: [ help ]  
212362 (2006 FS41)
Classification: Main-belt Asteroid          SPK-ID: 2212362
Ephemeris | Orbit Diagram | Orbital Elements | Mission Design | Physical Parameters | Discovery Circumstances | Close-Approach Data ]

[ show orbit diagram ]
Orbital Elements at Epoch 2459000.5 (2020-May-31.0) TDB
Reference: JPL 13 (heliocentric ecliptic J2000)
 Element Value Uncertainty (1-sigma)   Units 
e .1759925976072287 4.6046e-08  
a 2.296568692658762 7.5182e-09 au
q 1.892389602854309 1.0446e-07 au
i 3.449757509082529 4.1824e-06 deg
node 179.1065186196262 7.1939e-05 deg
peri 44.04030683287531 7.2947e-05 deg
M 10.03214787101587 1.0071e-05 deg
tp 2458965.075069147010
(2020-Apr-25.57506915)
3.5565e-05 TDB
period 1271.210838500627
3.48
6.2422e-06
1.709e-08
d
yr
n .2831945646597966 1.3906e-09 deg/d
Q 2.700747782463215 8.8413e-09 au
  Orbit Determination Parameters
   # obs. used (total)      333  
   data-arc span      7799 days (21.35 yr)  
   first obs. used      1999-03-12  
   last obs. used      2020-07-18  
   planetary ephem.      DE431  
   SB-pert. ephem.      SB431-N16  
   condition code      0  
   norm. resid. RMS      .45894  
   source      ORB  
   producer      Otto Matic  
   solution date      2020-Nov-12 04:01:32  

Additional Information
 Earth MOID = .885699 au 
 Jupiter MOID = 2.27679 au 
 T_jup = 3.571 
[ show covariance matrix ]

Ephemeris | Orbit Diagram | Orbital Elements | Mission Design | Physical Parameters | Discovery Circumstances | Close-Approach Data ]

Physical Parameter Table
Parameter Symbol Value Units Sigma Reference Notes
absolute magnitude H 17.2   n/a MPO418136  

212362 (2006 FS41)          Discovered 2006-Mar-26 by Mt. Lemmon Survey at Mount Lemmon
Reference: 20090409/Numbers.arcLast Updated: 2009-04-10

[ show close-approach data ]
Alternate Designations
 2006 FS41 = 1999 EO4 
Ephemeris | Orbit Diagram | Orbital Elements | Mission Design | Physical Parameters | Discovery Circumstances | Close-Approach Data ]
ABOUT SSD CREDITS/AWARDS PRIVACY/COPYRIGHT GLOSSARY LINKS
FirstGov 2020-Dec-02 01:47 UT
(server date/time)  
NASA Home Page
Site Manager:   Ryan S. Park
Webmaster  Alan B. Chamberlin